EST,Max TemperatureF,Mean TemperatureF,Min TemperatureF,Max Dew PointF,MeanDew PointF,Min DewpointF,Max Humidity, Mean Humidity, Min Humidity, Max Sea Level PressureIn, Mean Sea Level PressureIn, Min Sea Level PressureIn, Max VisibilityMiles, Mean VisibilityMiles, Min VisibilityMiles, Max Wind SpeedMPH, Mean Wind SpeedMPH, Max Gust SpeedMPH,PrecipitationIn, CloudCover, Events, WindDirDegrees
2012-11-1,64,49,33,35,25,15,89,53,16,30.03,29.97,29.94,10,10,10,13,4,17,0.00,1,,297
2012-11-2,75,58,40,46,39,36,83,55,27,30.03,29.97,29.91,10,10,10,17,4,22,0.00,3,,291
2012-11-3,77,59,41,59,44,35,93,64,34,30.14,30.04,29.94,10,10,8,15,2,21,0.07,2,Rain,198
2012-11-4,65,61,56,58,49,38,100,70,39,30.12,30.04,29.97,10,10,10,14,5,18,0.01,5,Rain,349
2012-11-5,62,49,36,41,37,33,92,64,36,30.14,30.07,29.97,10,10,10,9,2,13,0.00,4,Fog,360
2012-11-6,53,49,45,47,44,37,93,76,59,30.03,29.99,29.95,10,9,4,10,5,15,0.39,8,Rain,354
2012-11-7,53,48,43,47,43,39,100,80,59,30.10,29.96,29.90,10,9,2,16,5,18,0.13,7,Rain,284
2012-11-8,61,49,36,42,38,34,100,70,39,30.25,30.19,30.11,10,10,10,14,3,17,0.00,0,Fog,3
2012-11-9,67,51,34,43,38,32,100,64,28,30.35,30.27,30.21,10,7,0,5,0,7,0.00,3,Fog,-1
2012-11-10,71,54,37,46,40,35,100,64,27,30.38,30.31,30.24,10,7,0,9,1,13,0.00,2,Fog,0
2012-11-11,71,54,37,51,45,37,100,74,47,30.41,30.31,30.24,10,10,10,20,4,28,0.00,4,,160
2012-11-12,65,53,40,61,53,34,97,80,63,30.41,30.24,30.16,10,7,1,22,11,31,0.54,7,Rain,197
2012-11-13,54,46,37,34,27,23,79,56,32,30.45,30.40,30.35,10,10,10,22,13,28,0.00,0,,15
2012-11-14,55,47,38,38,32,28,82,64,46,30.44,30.35,30.30,10,10,10,10,4,14,0.00,5,,16
2012-11-15,61,50,38,40,38,34,93,66,39,30.33,30.28,30.23,10,10,10,10,1,14,0.00,4,,4
2012-11-16,61,47,33,39,33,23,100,62,24,30.37,30.32,30.28,10,10,10,14,3,17,0.00,2,,16
2012-11-17,63,48,32,39,34,30,92,63,34,30.48,30.40,30.35,10,10,9,9,2,12,0.00,0,,5
2012-11-18,65,49,32,39,33,28,100,63,26,30.45,30.39,30.32,10,8,0,10,2,17,0.00,1,Fog,24
2012-11-19,68,51,33,42,37,33,100,65,30,30.36,30.29,30.21,10,10,10,13,1,15,0.00,4,,30
2012-11-20,69,55,40,45,42,39,93,66,39,30.21,30.15,30.07,10,10,10,7,0,9,0.00,4,,220
2012-11-21,71,57,42,47,44,42,100,70,40,30.19,30.15,30.11,10,10,8,13,2,16,0.00,2,,22
2012-11-22,69,54,38,45,41,37,100,68,35,30.28,30.21,30.16,10,9,7,9,1,14,0.00,2,Fog,169
2012-11-23,65,52,39,50,42,32,100,78,56,30.19,30.15,30.09,10,10,9,16,3,18,0.00,5,,291
2012-11-24,49,40,30,31,23,19,78,55,31,30.26,30.20,30.17,10,10,10,16,7,20,0.00,3,,341
2012-11-25,57,42,26,29,24,21,92,58,24,30.22,30.15,30.06,10,10,10,10,2,15,0.00,0,,188
2012-11-26,67,50,32,48,33,26,85,55,24,30.22,30.16,30.10,10,9,5,12,2,13,0.06,5,Rain,181
2012-11-27,51,47,42,50,45,35,100,85,70,30.30,30.18,30.11,10,7,2,16,7,20,0.35,8,Rain,351
2012-11-28,52,43,33,36,33,28,96,69,41,30.47,30.39,30.30,10,10,8,12,4,14,0.00,3,,1
2012-11-29,60,45,29,36,32,28,100,65,29,30.48,30.39,30.31,10,10,10,10,1,13,0.00,2,,187
2012-11-30,63,47,31,48,39,30,100,78,56,30.40,30.33,30.25,10,10,7,12,1,15,0.00,4,,208